Location: Caltech
(34.1382°N, 118.1253°W)
Time: 00:34:00
(UTC-07:00)

Daily predictions for brighter satellites

Satellite Brightness Start Highest point End
(mag) Time Altitude Azimuth Time Altitude Azimuth Time Altitude Azimuth
Milstar 3 4.2 03:41:00 28° ESE 03:41:00 28° ESE 03:44:17 10° E
Cosmos 1943 Rocket 4.5 03:47:34 18° NE 03:47:34 18° NE 03:49:01 10° NE
ADEOS II 4.2 03:58:40 10° NNE 04:00:18 20° NNE 04:00:18 20° NNE
USA 267 3.5 04:07:43 10° SE 04:13:28 66° E 04:13:28 66° E
Cosmos 2369 Rocket 4.2 04:25:18 17° N 04:25:18 17° N 04:26:39 10° N
CZ-3 R/B 3.8 04:23:59 43° W 04:35:28 67° SSW 04:45:21 10° ESE
Cosmos 44 4.4 04:39:52 36° NE 04:40:36 39° ENE 04:45:08 10° SE
CZ-4C R/B 3.5 04:36:58 14° NNW 04:43:18 56° NE 04:51:10 10° SE
Nadezhda 1 Rocket 3.9 04:45:40 54° S 04:47:18 86° W 04:53:43 10° N
Cosmos 1242 Rocket 4.4 04:49:33 29° ESE 04:49:33 29° ESE 04:51:59 10° SE
Cosmos 990 Rocket 4.5 04:51:00 49° N 04:51:00 49° N 04:54:48 10° NNE
Cosmos 2074 Rocket 4.4 04:45:50 10° NNW 04:53:56 46° SSW 04:58:18 10° S
Cosmos 1378 4.4 04:54:17 39° ENE 04:54:17 39° ENE 04:57:15 10° NNE
Cosmos 44 Rocket 3.8 04:56:14 36° N 04:57:58 56° ENE 05:02:49 10° SE
PAYLOAD B 4.2 04:53:59 10° NNE 04:59:30 81° ESE 05:04:18 14° S
Okean O Rocket 1.9 04:57:11 10° NNE 05:00:41 56° N 05:00:41 56° N
GPS 2-04 Rocket1 3.3 05:05:03 51° ENE 05:05:03 51° ENE 05:07:55 10° E
CZ-4B DEB 4.1 05:04:03 10° NNE 05:09:34 86° WNW 05:15:05 10° SSW
Cosmos 1656 Rocket 3.6 05:10:28 47° SW 05:12:05 70° WNW 05:17:46 10° NNE
Cosmos 1758 Rocket 3.4 05:13:26 50° SSW 05:14:34 79° W 05:19:04 10° N
APEX 4.3 05:15:49 16° N 05:18:42 48° ENE 05:23:18 10° SE
Cosmos 2154 Rocket 3.9 05:15:06 10° N 05:21:26 78° W 05:27:43 10° S
Cosmos-2242 4.0 05:20:00 10° N 05:24:09 48° E 05:28:19 10° SSE
CZ-4B R/B 3.1 05:21:25 10° N 05:26:50 66° WNW 05:32:19 10° SSW
Cosmos 1943 Rocket 3.7 05:29:08 19° NW 05:29:08 19° NW 05:31:49 10° N
BREEZE-M DEB 4.2 05:33:16 65° W 05:33:38 75° SW 05:37:50 10° SE
BREEZE-M DEB (TANK) 3.7 05:38:01 27° NW 05:39:23 33° NNW 05:47:35 10° NE
Meteor PRIRODA 3.9 05:37:29 10° N 05:41:06 45° WNW 05:42:35 29° SW
ADEOS II 3.8 05:39:37 10° NNW 05:41:14 15° NW 05:41:14 15° NW
NOSS 3-1 (C) 3.4 05:40:43 20° SW 05:44:32 55° NW 05:50:40 10° NNE
USA 229 DEB 4.5 05:43:09 24° W 05:45:36 30° NW 05:51:35 10° NNE
USA 229 4.5 05:43:13 24° W 05:45:41 31° NW 05:51:41 10° NNE
OAO 2 Rocket 3.2 05:46:09 27° W 05:48:54 85° N 05:53:52 10° E
NOSS 3-1 (A) 3.2 05:43:53 10° SW 05:49:30 73° WNW 05:55:46 10° NNE
Cosmos 1470 3.5 05:50:07 28° W 05:50:07 28° W 05:53:13 10° SSW
Meteor 2-21 4.3 05:45:39 10° N 05:51:43 81° W 05:57:49 10° S
Meteor 1-24 Rocket 3.9 05:48:09 10° S 05:54:11 86° E 06:00:11 10° N
USA 267 4.2 05:52:16 10° S 05:57:28 25° WSW 06:00:51 17° W
IDEFIX/ARIANE 42P 3.8 05:52:38 10° NNE 05:57:39 46° E 06:02:38 10° S
Cosmos 2218 Rocket 4.2 05:52:37 10° N 05:58:53 75° E 06:05:11 10° S
Meteor 1-31 Rocket 3.5 05:58:42 10° NNW 06:02:00 29° WNW 06:05:17 10° SW
Tiangong 2 2.1 06:00:07 17° NW 06:02:15 41° NNE 06:05:19 10° E
Feng Yun 1-1 Rocket 4.2 05:59:58 10° N 06:05:35 77° WNW 06:11:20 10° SSW
Cosmos 1674 4.4 06:02:26 10° SSE 06:05:52 36° E 06:09:19 10° NNE
Cosmos 372 Rocket 4.1 06:04:09 10° SSW 06:09:13 55° WNW 06:14:22 10° N
Cosmos 2181 Rocket 4.3 06:04:06 10° SSW 06:10:00 43° W 06:15:53 10° N
Cosmos 2341 Rocket 4.3 06:04:12 10° NNW 06:10:11 44° W 06:16:10 10° SSW
Cosmos 2227 Rocket 4.1 06:05:33 10° N 06:10:33 31° ENE 06:15:31 10° ESE
SJ 16-02 1.5 06:06:54 10° SSW 06:11:10 51° WNW 06:15:28 10° N
Cosmos 1707 4.4 06:11:52 15° WNW 06:11:55 15° WNW 06:14:15 10° NW
Cosmos 1125 Rocket 3.8 06:10:06 10° SW 06:15:03 43° WNW 06:20:05 10° N
Meteor 2-14 Rocket 4.4 06:10:07 10° NNW 06:16:07 66° W 06:22:06 10° S
NOAA 6 4.1 06:12:46 10° N 06:17:51 61° WNW 06:22:54 10° SSW
PAYLOAD A 3.9 06:14:41 10° NNE 06:19:25 86° ESE 06:24:15 10° SSW
Meteor 2-16 Rocket 4.4 06:13:30 10° N 06:19:38 74° W 06:25:44 10° S
SKYMED 2 3.5 06:15:29 10° S 06:19:49 82° WSW 06:24:10 10° NNW
Milstar 3 3.6 06:14:34 11° W 06:20:38 46° S 06:29:27 10° ESE
ERBS 4.3 06:21:46 10° NNW 06:24:48 28° NE 06:27:50 10° ESE
SL-08 R/B 4.5 06:23:42 10° N 06:29:51 73° W 06:36:04 10° S
Shenzhou-11 Module 2.4 06:28:42 10° WNW 06:31:40 47° SSW 06:34:37 10° SE
CZ-4C R/B 3.8 06:25:17 10° NW 06:31:42 30° WSW 06:38:28 10° SSW
EO 1 Del DPAF 3.8 06:29:09 10° SSW 06:32:40 35° W 06:36:13 10° NNW
Cosmos 1908 3.7 06:31:04 10° N 06:34:54 64° E 06:38:40 10° SSE
Cosmos 2219 3.4 06:29:42 10° NNW 06:35:11 53° WSW 06:40:38 10° S
